Temperature
17 18 17 17 17 17 17 17 17 17 17 17 17 17 17 17 17 17 17 17 17 16 16 16 16 16 16 16 16 16 16 16 16 15 15 15 15 15 15 15 15 15 15
17 17 17 17 17 17 17 17 17 17 17 17 17 17 17 17 17 17 17 17 16 16 16 16 16 16 16 16 16 16 15 15 15 15 15 15 15 15 15 15 15 15 15
17 17 17 17 17 17 17 17 17 17 17 17 17 17 17 17 17 17 16 16 16 16 16 16 16 16 16 16 16 15 15 15 15 15 14 15 15 15 15 15 15 15 15
17 17 17 17 17 17 17 17 17 17 17 17 17 17 17 17 17 16 16 16 16 16 16 16 16 16 15 15 15 15 15 15 14 14 14 14 15 15 15 15 15 15 15
16 16 17 16 16 16 16 16 16 17 16 16 16 16 16 16 16 16 16 16 16 16 16 16 16 16 15 15 15 15 15 15 14 14 14 14 14 14 15 14 15 15 14
16 16 16 16 16 16 16 16 16 16 16 16 16 16 16 16 16 16 16 16 16 16 16 16 16 16 16 15 15 15 15 14 14 14 14 14 14 14 14 14 14 14 14
16 16 16 16 16 16 16 16 16 16 16 16 16 16 16 16 16 16 16 16 16 16 16 16 16 15 16 15 15 15 15 14 14 14 14 14 14 14 14 14 14 14 14
16 16 16 16 16 16 16 16 16 16 16 16 16 16 16 16 16 16 16 16 16 16 16 15 15 15 15 15 15 15 15 14 14 14 14 14 14 14 14 14 14 14 14
15 15 15 16 16 16 16 16 16 16 16 16 16 16 16 16 16 16 16 16 15 15 15 15 15 15 15 15 15 15 15 14 14 13 13 14 14 14 14 14 14 14 14
15 15 15 15 15 16 16 16 16 16 16 16 16 16 15 15 15 15 15 16 15 15 15 15 15 15 15 15 15 15 15 14 14 13 13 13 14 14 14 14 14 14 14
15 15 15 15 15 15 15 15 16 16 16 16 15 15 15 15 15 15 15 15 15 15 15 15 15 15 15 15 15 15 15 14 14 13 13 14 14 14 14 14 14 14 14
14 14 14 15 15 15 15 15 15 15 15 15 15 15 15 15 15 15 15 15 15 15 15 15 15 15 15 15 15 15 15 14 14 14 14 14 14 14 14 14 14 14 14
13 14 14 14 14 15 15 15 15 15 15 15 15 15 15 15 15 15 15 15 15 15 15 15 15 15 15 15 15 15 14 14 14 14 14 14 14 14 14 14 14 14 14
13 13 14 14 14 14 14 14 15 15 15 15 15 15 15 15 15 15 15 15 15 15 15 15 15 15 14 14 14 14 14 14 14 14 14 14 14 14 14 14 14 14 14
12 13 13 13 14 14 14 14 14 14 15 15 15 15 15 15 15 15 15 15 15 15 15 14 14 14 14 14 14 14 14 14 14 14 14 14 14 14 14 14 14 14 14
12 12 12 13 13 13 14 14 14 14 14 14 15 15 15 15 14 15 15 15 15 15 14 14 14 14 14 14 14 14 14 14 14 14 14 14 14 14 14 14 14 14 14
11 11 12 12 13 13 13 14 14 14 14 14 14 14 14 14 14 14 14 14 14 14 14 14 14 14 14 14 14 14 14 14 14 14 14 14 14 14 14 14 14 14 14
11 11 11 12 12 12 13 13 13 14 14 14 14 14 14 14 14 14 14 14 14 14 14 14 14 14 13 14 14 14 14 14 14 14 14 14 14 14 14 14 14 14 14
10 10 11 11 12 12 12 12 13 13 13 13 14 14 14 14 14 14 14 14 14 14 14 14 13 13 13 13 14 14 14 14 14 13 13 13 13 14 14 14 14 14 14
10 10 10 11 11 11 11 12 12 12 13 13 13 13 13 13 13 13 13 13 13 13 13 13 13 13 13 13 13 13 13 13 13 13 13 13 13 13 13 14 14 13 13
9 9 9 10 10 10 11 11 11 12 12 12 13 13 13 13 13 13 13 13 13 13 13 13 13 13 13 13 13 13 13 13 13 13 13 13 13 13 13 13 13 13 13
9 9 9 9 10 10 10 10 11 11 12 12 12 12 12 12 13 13 13 13 13 13 13 13 13 12 12 12 12 12 12 12 12 12 13 13 13 12 13 13 13 13 13
8 8 9 9 9 10 10 10 10 10 11 11 11 12 12 12 12 12 12 12 12 12 12 12 12 12 12 12 12 11 11 11 12 12 12 12 12 12 12 12 12 12 12
8 8 8 9 9 9 9 9 9 10 10 10 10 11 11 11 12 12 12 12 12 12 12 12 12 12 12 12 11 11 11 11 11 11 11 12 12 12 12 12 12 12 12
7 7 8 8 9 9 9 9 9 9 9 10 10 10 10 11 11 11 11 11 12 11 11 11 12 11 11 11 11 11 11 11 11 10 10 11 11 11 11 11 11 11 11
7 7 7 8 8 8 8 8 9 9 9 9 9 9 10 10 10 10 11 11 11 11 11 11 11 11 11 11 11 10 10 10 10 10 10 10 10 11 11 11 11 11 11
Wind_Speed
5 8 12 10 11 12 12 13 13 13 13 13 13 12 12 11 11 11 11 11 10 10 11 11 11 11 11 11 12 12 12 13 13 14 14 14 13 13 12 12 14 13 14
5 10 12 11 10 11 11 12 12 13 13 13 13 12 12 11 11 11 10 10 10 10 10 10 10 10 11 11 11 11 11 11 11 12 13 14 13 13 14 15 14 12 13
5 9 11 11 10 10 10 11 11 13 13 13 13 12 12 11 11 10 10 10 10 10 10 10 10 10 10 11 11 10 9 8 7 7 8 11 12 12 12 13 12 12 12
5 8 9 10 10 10 10 10 11 12 13 13 12 12 12 11 11 10 10 10 10 10 9 9 10 10 10 10 10 8 7 4 2 1 4 10 11 10 11 11 11 11 11
5 7 10 11 9 9 9 10 10 11 12 13 13 12 12 11 11 11 10 10 10 10 9 9 10 10 11 10 9 7 5 1 2 1 7 12 11 9 9 9 9 9 9
5 7 9 11 9 8 8 9 10 11 11 12 12 12 12 12 11 10 10 10 10 10 10 10 12 11 10 9 8 5 3 2 5 1 7 11 11 8 8 8 7 7 8
5 5 7 9 9 8 8 8 9 10 10 11 12 12 12 12 11 11 11 11 10 10 11 11 11 11 10 9 7 5 2 4 5 2 8 11 10 8 7 6 6 6 6
4 3 5 7 7 8 9 8 8 9 11 11 12 12 12 12 12 12 11 11 11 11 11 11 11 10 9 8 6 4 3 5 4 2 8 10 9 7 5 4 4 4 4
4 3 2 3 5 6 9 9 9 9 10 11 12 12 12 12 12 12 12 12 12 12 12 12 11 10 9 8 7 5 4 6 7 2 6 9 8 6 4 3 2 2 2
4 2 1 1 3 4 6 9 10 10 10 10 12 12 13 13 13 13 13 14 14 13 13 12 11 11 10 9 7 6 6 7 8 3 6 9 8 5 3 2 1 1 1
4 3 1 1 1 3 5 7 9 10 11 11 11 13 13 11 12 13 14 15 15 14 14 13 12 11 10 9 9 8 7 9 8 3 7 9 7 4 3 2 2 1 1
4 4 2 2 2 2 4 5 7 8 10 10 11 13 13 12 12 12 15 17 16 15 15 14 13 12 10 9 10 10 9 10 7 4 8 10 7 5 4 3 3 3 3
5 4 3 3 3 2 2 3 3 5 7 10 11 12 13 12 10 9 10 12 13 14 12 12 12 11 11 10 9 10 11 9 5 4 9 10 8 6 5 5 5 4 4
5 5 4 3 3 3 3 2 3 3 3 5 8 10 9 5 5 6 6 9 10 10 10 10 9 11 11 10 10 10 10 7 5 5 9 10 9 7 6 6 6 6 6
5 5 5 4 4 4 3 3 3 3 3 4 6 8 8 5 6 5 6 8 9 10 9 7 8 7 7 8 9 8 6 7 6 6 8 11 10 8 8 7 7 7 7
6 5 5 5 5 5 4 4 4 3 4 4 4 7 9 6 5 5 6 6 7 9 9 8 7 6 5 4 4 4 5 6 6 6 8 10 11 10 9 8 8 8 8
7 6 6 6 5 5 6 5 4 3 4 3 4 7 9 8 7 6 6 7 7 9 9 7 6 5 4 4 4 4 3 4 4 5 7 9 10 11 11 10 9 9 8
6 6 6 7 6 5 5 5 4 3 3 3 4 5 7 8 8 6 5 6 7 8 6 5 4 4 4 4 4 3 3 3 4 5 5 7 9 9 11 11 11 10 10
5 6 7 6 6 6 5 4 4 3 4 3 4 4 5 7 8 5 5 5 6 5 5 5 4 4 4 4 4 3 3 3 4 4 4 6 7 8 9 11 12 12 11
5 6 7 7 6 5 4 3 3 3 4 3 3 4 5 6 7 5 4 5 5 5 5 5 5 4 4 4 4 3 4 4 4 4 4 5 6 8 9 9 10 11 13
5 5 6 6 5 4 3 3 3 3 3 3 3 4 5 5 5 5 5 5 5 6 6 6 5 5 4 3 2 2 3 5 5 5 4 4 4 7 8 8 9 9 10
5 5 6 5 5 5 4 3 3 3 3 3 2 3 3 4 5 5 5 5 5 5 6 6 5 4 3 4 3 2 2 3 5 5 4 4 5 4 5 8 9 9 9
7 6 6 5 4 4 4 2 2 2 1 2 2 2 2 3 3 4 5 4 4 5 5 6 6 6 4 4 3 3 3 4 2 3 5 5 4 4 4 5 8 9 9
7 6 5 3 2 2 2 3 4 3 3 3 2 2 1 2 2 2 3 4 4 4 4 5 5 4 5 5 3 3 2 2 2 2 3 4 5 5 5 5 5 8 10
8 7 5 4 2 2 1 1 2 2 2 1 1 1 1 1 2 2 2 2 3 3 4 4 4 4 4 5 4 3 3 2 3 3 4 3 4 5 5 6 5 6 9
7 7 5 4 3 2 1 1 1 1 1 1 1 1 1 1 1 1 2 2 1 2 2 3 3 4 4 4 4 4 3 3 3 3 4 4 5 5 5 5 5 5 8
Wind_Direction
89 122 140 145 148 149 150 149 148 148 147 146 143 141 136 132 130 129 128 126 124 124 120 116 110 105 101 97 95 91 89 88 90 89 83 78 76 71 67 71 77 73 73
90 123 140 147 151 152 153 152 151 152 151 151 149 148 145 143 140 138 136 134 132 129 127 122 117 111 106 104 101 98 97 98 100 101 93 82 76 72 69 70 75 77 74
77 117 138 147 152 154 154 153 153 154 156 155 154 155 153 151 149 148 145 142 140 136 132 128 123 117 112 108 106 105 105 109 118 127 116 102 87 77 77 75 77 76 73
64 112 133 143 152 156 156 156 157 160 162 162 161 160 159 159 159 157 155 150 146 140 136 131 127 121 116 113 111 111 116 127 147 176 115 104 92 85 81 79 77 75 72
63 96 123 136 146 155 159 159 162 166 169 169 168 166 166 167 167 164 162 156 150 144 141 138 133 127 122 120 119 120 129 167 286 308 89 95 92 90 83 79 78 78 74
60 86 124 136 144 151 162 168 169 171 174 175 173 173 174 174 174 171 167 159 153 149 148 142 136 133 130 129 130 136 158 258 295 34 101 102 99 95 90 84 81 78 75
41 75 129 142 150 158 164 173 179 178 178 182 180 180 180 180 179 176 169 162 159 157 154 148 145 143 142 141 143 155 199 280 285 64 94 101 105 101 96 92 85 79 73
25 49 124 148 154 164 171 178 185 188 186 186 187 186 186 186 183 179 174 170 167 165 161 157 154 154 153 153 158 172 221 279 298 120 109 110 115 112 102 93 85 79 71
9 35 70 151 164 170 180 185 192 194 193 192 190 192 191 188 184 180 178 176 175 174 169 165 164 163 163 165 171 186 232 271 297 283 123 122 128 130 123 110 102 88 78
352 13 25 218 190 185 190 195 197 198 198 199 196 195 194 191 188 184 182 181 181 179 176 173 174 173 174 175 180 196 233 268 274 248 123 130 138 144 146 149 146 123 106
337 337 305 289 253 215 212 204 201 203 203 201 200 199 195 194 191 188 189 186 184 181 180 178 180 182 179 182 190 204 228 253 253 193 125 138 147 160 172 190 204 221 237
323 326 323 305 288 260 233 204 207 207 202 202 202 196 196 198 196 193 189 186 185 183 182 183 185 186 183 189 198 207 226 244 243 166 142 151 161 182 199 212 221 232 241
305 310 316 301 283 269 259 226 212 212 203 205 210 200 195 195 192 184 172 178 181 183 184 186 186 192 199 198 189 201 225 235 225 168 158 163 174 193 212 223 233 238 241
288 292 293 292 277 266 255 249 231 216 209 205 210 204 194 183 180 172 168 175 180 185 187 183 189 201 208 204 193 203 215 219 212 172 167 173 182 201 218 228 236 241 244
283 284 281 275 270 262 250 242 237 223 218 218 210 206 196 184 186 176 174 179 184 185 185 189 194 196 204 207 203 206 203 210 210 185 171 181 189 203 219 232 238 239 242
287 282 281 276 263 258 248 236 235 235 224 225 211 208 204 192 186 182 179 179 187 185 186 192 193 191 200 198 210 211 211 212 210 190 175 188 197 207 218 230 239 243 247
291 288 277 273 262 256 253 245 239 235 231 219 213 211 207 198 188 186 185 184 185 186 186 191 196 188 191 194 213 225 221 218 214 199 184 186 198 210 217 226 235 241 247
284 285 280 277 271 255 249 245 240 236 233 225 219 217 217 210 197 189 192 190 185 182 181 183 186 183 192 194 201 222 224 218 223 214 204 194 192 201 214 223 230 238 242
279 280 277 268 265 261 255 245 240 236 227 225 218 216 221 219 206 190 192 195 184 177 179 183 184 182 191 195 199 213 226 220 220 218 211 203 199 195 201 217 225 232 237
282 275 274 264 254 250 247 244 242 236 232 222 215 212 217 216 207 195 191 196 182 178 179 180 187 186 186 189 204 215 228 232 219 216 214 206 205 204 205 211 217 229 237
299 286 276 263 254 241 229 224 229 229 228 223 218 217 215 217 208 196 198 192 183 184 184 184 182 185 192 173 166 222 251 242 231 223 212 208 208 210 214 215 217 223 231
316 309 289 270 255 243 228 220 221 224 223 217 215 223 217 212 210 204 198 193 186 186 186 187 174 181 192 178 164 164 229 250 245 228 216 214 213 204 213 222 224 226 227
330 316 304 288 272 256 239 218 214 220 239 242 219 209 216 209 205 201 193 189 184 184 188 189 182 180 190 196 185 176 189 218 237 238 226 217 218 221 229 228 229 232 235
332 327 318 316 299 282 253 220 213 216 223 227 216 208 206 182 174 169 164 171 181 181 187 191 182 179 182 197 211 218 214 186 195 237 247 230 228 231 232 234 231 235 235
344 345 351 359 355 345 305 209 202 212 218 207 165 143 178 137 130 121 122 155 177 185 191 190 183 180 190 201 201 204 227 254 231 221 245 243 247 240 237 238 235 233 237
353 353 356 4 12 16 33 45 124 166 182 162 137 149 154 126 109 114 123 137 161 177 194 195 190 191 199 207 211 207 202 206 220 228 243 246 248 247 244 238 236 236 239
Height
1504 1503 1504 1506 1508 1510 1512 1513 1516 1518 1520 1521 1523 1524 1526 1527 1528 1529 1530 1531 1532 1533 1533 1534 1535 1535 1536 1537 1537 1538 1538 1539 1539 1540 1540 1540 1541 1541 1541 1541 1541 1541 1541
1504 1503 1504 1506 1508 1510 1512 1514 1516 1518 1520 1522 1524 1525 1527 1528 1529 1530 1531 1532 1533 1534 1535 1535 1536 1537 1537 1538 1538 1539 1540 1541 1541 1542 1542 1542 1542 1542 1542 1542 1543 1543 1542
1504 1503 1504 1506 1508 1510 1512 1514 1516 1518 1520 1522 1524 1526 1527 1528 1530 1531 1532 1533 1534 1535 1536 1536 1537 1538 1539 1539 1540 1541 1541 1542 1543 1543 1543 1543 1544 1544 1544 1544 1544 1544 1544
1504 1504 1505 1506 1508 1511 1512 1514 1516 1518 1521 1522 1524 1526 1527 1529 1530 1531 1532 1533 1534 1536 1537 1537 1538 1539 1540 1541 1541 1542 1543 1544 1545 1545 1545 1545 1545 1545 1545 1545 1545 1545 1545
1504 1504 1505 1507 1508 1510 1512 1514 1516 1518 1520 1522 1524 1526 1527 1529 1530 1531 1532 1534 1535 1536 1537 1538 1539 1540 1541 1542 1542 1543 1544 1545 1546 1546 1546 1546 1546 1546 1546 1546 1546 1546 1546
1504 1504 1505 1507 1508 1510 1512 1514 1516 1518 1520 1522 1524 1525 1527 1528 1530 1531 1532 1534 1535 1536 1537 1538 1539 1541 1542 1542 1543 1544 1545 1546 1547 1547 1547 1547 1547 1547 1546 1546 1546 1546 1546
1504 1504 1505 1506 1508 1510 1511 1513 1515 1517 1519 1521 1523 1525 1526 1528 1529 1531 1532 1533 1535 1536 1537 1538 1540 1541 1542 1543 1544 1544 1545 1546 1547 1548 1548 1547 1547 1547 1547 1547 1547 1546 1546
1503 1504 1505 1506 1507 1509 1511 1512 1514 1516 1518 1520 1522 1524 1525 1527 1528 1530 1531 1533 1534 1536 1537 1538 1540 1541 1542 1543 1544 1545 1546 1546 1547 1548 1548 1547 1547 1547 1547 1547 1547 1547 1546
1503 1503 1504 1505 1506 1508 1509 1511 1513 1515 1517 1519 1520 1522 1524 1526 1527 1529 1530 1532 1533 1535 1536 1538 1539 1540 1541 1542 1543 1544 1545 1546 1547 1548 1548 1547 1547 1547 1547 1547 1547 1546 1546
1502 1502 1503 1504 1505 1506 1508 1509 1511 1513 1515 1517 1519 1521 1522 1524 1526 1527 1529 1531 1532 1534 1535 1537 1538 1540 1541 1542 1543 1544 1545 1546 1547 1547 1547 1547 1547 1547 1547 1546 1546 1546 1546
1500 1501 1501 1502 1503 1504 1506 1507 1509 1511 1513 1515 1517 1519 1520 1522 1524 1526 1527 1529 1531 1533 1534 1536 1537 1539 1540 1541 1542 1543 1544 1545 1546 1547 1547 1546 1546 1546 1546 1546 1546 1545 1545
1498 1499 1499 1500 1501 1502 1504 1505 1506 1508 1510 1512 1514 1516 1518 1520 1522 1523 1525 1527 1529 1531 1532 1534 1536 1537 1538 1539 1541 1542 1543 1544 1545 1546 1546 1546 1546 1545 1545 1545 1545 1545 1544
1496 1496 1497 1498 1499 1500 1501 1502 1504 1505 1507 1509 1512 1514 1516 1518 1520 1521 1523 1525 1527 1529 1530 1532 1533 1535 1536 1538 1539 1541 1542 1543 1544 1544 1544 1544 1544 1544 1544 1544 1544 1544 1544
1493 1493 1494 1495 1496 1497 1498 1499 1501 1502 1504 1506 1509 1511 1513 1515 1517 1518 1520 1522 1524 1526 1527 1529 1531 1533 1534 1536 1538 1539 1540 1541 1542 1542 1543 1543 1543 1543 1543 1542 1542 1542 1542
1490 1490 1491 1491 1492 1493 1494 1496 1497 1499 1501 1503 1505 1508 1510 1512 1514 1515 1517 1519 1521 1523 1525 1526 1529 1530 1532 1534 1536 1537 1538 1539 1540 1540 1541 1541 1541 1541 1541 1541 1541 1541 1541
1486 1486 1487 1487 1488 1489 1490 1492 1493 1495 1497 1499 1501 1503 1506 1508 1510 1512 1514 1516 1518 1520 1522 1524 1526 1528 1530 1532 1533 1535 1536 1537 1538 1538 1538 1538 1539 1539 1539 1539 1539 1539 1539
1483 1482 1482 1483 1484 1485 1486 1487 1489 1491 1493 1495 1497 1499 1502 1504 1506 1508 1510 1512 1514 1517 1519 1521 1523 1525 1527 1528 1530 1532 1533 1534 1535 1535 1536 1536 1536 1536 1536 1536 1536 1536 1536
1478 1478 1478 1479 1479 1480 1481 1483 1484 1486 1488 1490 1492 1494 1497 1500 1502 1504 1506 1509 1511 1513 1515 1517 1520 1522 1523 1525 1526 1528 1529 1531 1532 1532 1533 1533 1533 1533 1533 1533 1534 1534 1534
1473 1473 1473 1474 1474 1475 1477 1478 1479 1481 1483 1485 1487 1489 1492 1495 1497 1500 1502 1505 1507 1509 1511 1514 1516 1518 1519 1521 1522 1524 1525 1526 1527 1528 1529 1529 1530 1530 1530 1530 1531 1531 1531
1469 1468 1468 1468 1469 1470 1472 1473 1474 1476 1478 1480 1482 1484 1487 1490 1492 1495 1497 1500 1503 1505 1507 1509 1511 1514 1515 1517 1519 1520 1521 1522 1523 1524 1525 1525 1526 1526 1527 1527 1527 1527 1527
1465 1464 1463 1463 1464 1465 1466 1468 1470 1471 1473 1475 1477 1480 1482 1484 1487 1490 1492 1495 1498 1500 1502 1505 1507 1509 1511 1513 1515 1516 1517 1518 1519 1519 1520 1521 1521 1522 1522 1523 1523 1523 1523
1460 1459 1459 1459 1459 1461 1462 1464 1466 1467 1469 1471 1473 1474 1477 1479 1482 1485 1487 1490 1493 1495 1498 1500 1502 1504 1506 1508 1510 1511 1512 1514 1513 1515 1515 1516 1516 1517 1518 1518 1519 1519 1519
1457 1456 1455 1454 1455 1456 1458 1460 1462 1463 1465 1466 1468 1470 1472 1475 1477 1480 1482 1485 1487 1490 1492 1495 1497 1499 1501 1504 1505 1507 1507 1507 1508 1509 1510 1511 1511 1512 1513 1513 1513 1514 1514
1454 1452 1451 1450 1451 1452 1454 1456 1458 1459 1461 1462 1464 1466 1468 1470 1473 1475 1477 1480 1482 1485 1487 1490 1491 1494 1496 1498 1500 1502 1503 1504 1504 1503 1504 1505 1506 1506 1507 1507 1508 1508 1508
1453 1450 1449 1448 1448 1450 1451 1453 1454 1456 1458 1459 1461 1462 1464 1466 1468 1471 1473 1475 1477 1480 1482 1484 1486 1488 1491 1493 1494 1496 1497 1499 1499 1500 1498 1498 1499 1500 1501 1501 1502 1502 1502
1451 1449 1447 1447 1447 1448 1449 1450 1452 1453 1455 1456 1457 1459 1460 1462 1464 1466 1469 1471 1473 1475 1477 1479 1481 1483 1485 1487 1489 1490 1491 1493 1493 1494 1493 1492 1493 1493 1494 1495 1495 1495 1496